EW9318 Weather Reports


time (UTC)temp
C
wind
direction
speed
KPH
gust
KPH
rain 1hr
cm
rain 24hr
cm
rain mn
cm
humidity
%
barometer
mb
20260508215516 16 304 14.5 24.1 0.00 0.00 0.00 21 1005.6
20260508215015 16 303 12.9 24.1 0.00 0.00 0.00 23 1005.7
20260508214515 16 301 16.1 25.7 0.00 0.00 0.00 23 1005.6
20260508214015 16 301 14.5 25.7 0.00 0.00 0.00 22 1005.6
20260508213515 16 324 14.5 22.5 0.00 0.00 0.00 24 1005.6
20260508213016 16 327 16.1 24.1 0.00 0.00 0.00 24 1005.6
20260508212516 16 298 12.9 29.0 0.00 0.00 0.00 21 1005.6
20260508212015 16 304 16.1 29.0 0.00 0.00 0.00 22 1005.8
20260508211515 16 303 17.7 27.4 0.00 0.00 0.00 23 1005.8
20260508211015 16 297 16.1 27.4 0.00 0.00 0.00 23 1005.8
20260508210515 16 263 12.9 25.7 0.00 0.00 0.00 24 1005.8
20260508210015 16 272 17.7 25.7 0.00 0.00 0.00 22 1005.8
20260508205515 16 274 11.3 24.1 0.00 0.00 0.00 23 1005.9
20260508205015 16 263 14.5 24.1 0.00 0.00 0.00 23 1005.9
20260508204516 16 247 16.1 25.7 0.00 0.00 0.00 24 1005.9
20260508204015 16 295 12.9 27.4 0.00 0.00 0.00 23 1006.1
20260508203515 16 288 17.7 27.4 0.00 0.00 0.00 23 1006.2
20260508203015 16 252 16.1 25.7 0.00 0.00 0.00 23 1006.3
20260508202515 16 240 16.1 29.0 0.00 0.00 0.00 23 1006.2
20260508202015 16 274 19.3 29.0 0.00 0.00 0.00 22 1006.4
20260508201515 16 257 14.5 27.4 0.00 0.00 0.00 25 1006.4
20260508201015 16 262 17.7 27.4 0.00 0.00 0.00 21 1006.5
20260508200538 16 270 17.7 27.4 0.00 0.00 0.00 24 1006.6
20260508200037 16 268 17.7 27.4 0.00 0.00 0.00 23 1006.6
20260508195517 16 271 14.5 24.1 0.00 0.00 0.00 25 1006.6
20260508195017 16 245 16.1 29.0 0.00 0.00 0.00 27 1006.7
20260508194517 16 250 16.1 30.6 0.00 0.00 0.00 24 1006.7
20260508194017 16 243 17.7 30.6 0.00 0.00 0.00 25 1006.8
20260508193518 16 230 17.7 27.4 0.00 0.00 0.00 25 1006.8
20260508193018 16 248 14.5 27.4 0.00 0.00 0.00 24 1006.8
20260508192517 16 269 14.5 27.4 0.00 0.00 0.00 25 1006.8
20260508192017 16 242 16.1 27.4 0.00 0.00 0.00 26 1006.8
20260508191518 16 271 14.5 24.1 0.00 0.00 0.00 27 1007.0
20260508191036 16 229 11.3 22.5 0.00 0.00 0.00 27 1007.0
20260508190517 16 269 12.9 25.7 0.00 0.00 0.00 25 1007.1
20260508190017 16 255 12.9 25.7 0.00 0.00 0.00 26 1007.1
20260508185517 16 261 16.1 27.4 0.00 0.00 0.00 25 1007.2
20260508185017 16 258 16.1 27.4 0.00 0.00 0.00 27 1007.2
20260508184518 16 284 14.5 27.4 0.00 0.00 0.00 24 1007.2
20260508184037 16 256 16.1 27.4 0.00 0.00 0.00 28 1007.2
20260508183517 16 285 9.7 30.6 0.00 0.00 0.00 26 1007.3
20260508183017 16 261 17.7 32.2 0.00 0.00 0.00 24 1007.4
20260508182517 16 228 16.1 32.2 0.00 0.00 0.00 27 1007.3
20260508182017 16 244 17.7 33.8 0.00 0.00 0.00 26 1007.4
20260508181517 16 244 17.7 33.8 0.00 0.00 0.00 28 1007.5
20260508181017 16 253 17.7 29.0 0.00 0.00 0.00 26 1007.6
20260508180515 16 262 16.1 29.0 0.00 0.00 0.00 25 1007.6
20260508180038 16 268 14.5 29.0 0.00 0.00 0.00 25 1007.6
20260508175517 16 285 16.1 30.6 0.00 0.00 0.00 25 1007.7
20260508175017 16 309 17.7 30.6 0.00 0.00 0.00 26 1007.7
20260508174517 16 278 12.9 24.1 0.00 0.00 0.00 28 1007.8
20260508174017 16 279 14.5 24.1 0.00 0.00 0.00 27 1008.0
20260508173517 16 252 11.3 27.4 0.00 0.00 0.00 27 1008.0
20260508173016 15 271 14.5 27.4 0.00 0.00 0.00 24 1008.1
20260508172517 15 296 14.5 24.1 0.00 0.00 0.00 27 1008.1
20260508172018 15 281 12.9 20.9 0.00 0.00 0.00 30 1008.1
20260508171517 15 281 9.7 19.3 0.00 0.00 0.00 27 1008.2
20260508171017 15 297 6.4 24.1 0.00 0.00 0.00 31 1008.3
20260508170517 16 276 12.9 24.1 0.00 0.00 0.00 31 1008.4
20260508170018 16 203 4.8 12.9 0.00 0.00 0.00 32 1008.5
20260508165516 15 103 3.2 17.7 0.00 0.00 0.00 33 1008.5
20260508165017 15 171 6.4 20.9 0.00 0.00 0.00 35 1008.7
20260508164516 15 216 9.7 20.9 0.00 0.00 0.00 35 1008.7
20260508164016 15 260 4.8 20.9 0.00 0.00 0.00 36 1008.8
20260508163517 15 287 3.2 14.5 0.00 0.00 0.00 35 1008.9
20260508163018 14 332 3.2 17.7 0.00 0.00 0.00 36 1009.1
20260508162536 14 315 8.0 17.7 0.00 0.00 0.00 38 1009.0
20260508162016 14 323 3.2 16.1 0.00 0.00 0.00 40 1009.1
20260508161536 14 310 8.0 16.1 0.00 0.00 0.00 38 1009.2
20260508161017 14 46 1.6 6.4 0.00 0.00 0.00 40 1009.2
20260508160516 13 13 3.2 8.0 0.00 0.00 0.00 42 1009.3
20260508160016 13 333 3.2 8.0 0.00 0.00 0.00 40 1009.3
20260508155516 13 10 3.2 8.0 0.00 0.00 0.00 44 1009.4
20260508155036 13 267 3.2 8.0 0.00 0.00 0.00 46 1009.3
20260508154516 13 260 3.2 19.3 0.00 0.00 0.00 43 1009.4
20260508154017 13 236 11.3 19.3 0.00 0.00 0.00 42 1009.3
20260508153536 13 244 6.4 16.1 0.00 0.00 0.00 43 1009.2
20260508153016 13 237 6.4 14.5 0.00 0.00 0.00 42 1009.2
20260508152558 13 207 4.8 14.5 0.00 0.00 0.00 48 1009.3
20260508152036 13 4 6.4 16.1 0.00 0.00 0.00 46 1009.3
20260508151517 13 347 6.4 16.1 0.00 0.00 0.00 46 1009.4
20260508151016 13 190 3.2 14.5 0.00 0.00 0.00 47 1009.5
20260508150518 13 259 6.4 14.5 0.00 0.00 0.00 44 1009.4
20260508150016 13 324 3.2 11.3 0.00 0.00 0.00 46 1009.6
20260508145516 13 245 4.8 11.3 0.00 0.00 0.00 46 1009.7
20260508145016 13 171 4.8 11.3 0.00 0.00 0.00 50 1009.7
20260508144516 13 235 1.6 8.0 0.00 0.00 0.00 53 1009.8
20260508144037 12 144 1.6 8.0 0.00 0.00 0.00 54 1009.9
20260508143516 12 200 3.2 8.0 0.00 0.00 0.00 53 1009.9
20260508143016 12 318 0.0 3.2 0.00 0.00 0.00 57 1009.9
20260508142516 12 343 0.0 3.2 0.00 0.00 0.00 61 1009.8
20260508142016 12 5 0.0 3.2 0.00 0.00 0.00 61 1009.9
20260508141516 12 331 0.0 3.2 0.00 0.00 0.00 65 1009.9
20260508141038 11 159 0.0 3.2 0.00 0.00 0.00 68 1010.0
20260508140518 11 254 0.0 4.8 0.00 0.00 0.00 71 1010.1
20260508140036 11 259 0.0 4.8 0.00 0.00 0.00 74 1010.1
20260508135516 11 0.0 4.8 0.00 0.00 0.00 76 1010.3
20260508135016 10 69 0.0 4.8 0.00 0.00 0.00 79 1010.3
20260508134516 10 128 0.0 3.2 0.00 0.00 0.00 81 1010.3
20260508134038 10 187 0.0 3.2 0.00 0.00 0.00 83 1010.2
20260508133516 9 210 0.0 6.4 0.00 0.00 0.00 84 1010.2
20260508133016 9 174 1.6 8.0 0.00 0.00 0.00 88 1010.1
20260508132516 8 160 3.2 8.0 0.00 0.00 0.00 88 1010.2
20260508132016 8 169 1.6 8.0 0.00 0.00 0.00 90 1010.3
20260508131517 8 185 1.6 6.4 0.00 0.00 0.00 91 1010.4
20260508131016 7 194 1.6 4.8 0.00 0.00 0.00 92 1010.5
20260508130518 7 190 0.0 3.2 0.00 0.00 0.00 93 1010.5
20260508130036 6 175 0.0 4.8 0.00 0.00 0.00 93 1010.5
20260508125517 6 199 1.6 4.8 0.00 0.00 0.00 93 1010.4
20260508125017 6 216 1.6 4.8 0.00 0.00 0.00 93 1010.5
20260508124536 6 214 0.0 4.8 0.00 0.00 0.00 94 1010.5
20260508124017 6 185 1.6 4.8 0.00 0.00 0.00 94 1010.6
20260508123517 5 184 0.0 4.8 0.00 0.00 0.00 94 1010.5
20260508123016 5 182 0.0 4.8 0.00 0.00 0.00 94 1010.4
20260508122516 5 192 0.0 4.8 0.00 0.00 0.00 94 1010.3
20260508122016 4 179 0.0 4.8 0.00 0.00 0.00 94 1010.2
20260508121536 4 193 1.6 4.8 0.00 0.00 0.00 94 1010.2
20260508121016 3 196 0.0 4.8 0.00 0.00 0.00 94 1010.2
20260508120516 3 0.0 0.0 0.00 0.00 0.00 94 1010.2
20260508120016 2 0.0 0.0 0.00 0.00 0.00 94 1010.0
20260508115536 2 0.0 0.0 0.00 0.00 0.00 94 1009.9
20260508115016 2 0.0 0.0 0.00 0.00 0.00 93 1009.8
20260508114538 2 0.0 0.0 0.00 0.00 0.00 93 1009.8
20260508114037 1 0.0 0.0 0.00 0.00 0.00 93 1009.8
20260508113516 1 0.0 0.0 0.00 0.00 0.00 94 1009.7
20260508113017 1 0.0 0.0 0.00 0.00 0.00 93 1009.6
20260508112536 0 0.0 0.0 0.00 0.00 0.00 93 1009.6
20260508112016 0 0.0 0.0 0.00 0.00 0.00 93 1009.6
20260508111516 0 0.0 0.0 0.00 0.00 0.00 93 1009.6
20260508111016 0 0.0 0.0 0.00 0.00 0.00 92 1009.6
20260508110517 0 0.0 0.0 0.00 0.00 0.00 92 1009.4
20260508110017 0 0.0 0.0 0.00 0.00 0.00 92 1009.3
20260508105516 0 0.0 0.0 0.00 0.00 0.00 92 1009.4
20260508105036 0 0.0 0.0 0.00 0.00 0.00 92 1009.4
20260508104516 0 0.0 0.0 0.00 0.00 0.00 92 1009.4
20260508104017 0 0.0 0.0 0.00 0.00 0.00 92 1009.3
20260508103517 0 0.0 0.0 0.00 0.00 0.00 92 1009.4
20260508103016 0 0.0 0.0 0.00 0.00 0.00 92 1009.4
20260508102516 0 0.0 0.0 0.00 0.00 0.00 92 1009.3
20260508102017 0 0.0 1.6 0.00 0.00 0.00 91 1009.2
20260508101517 0 102 0.0 3.2 0.00 0.00 0.00 92 1009.3
20260508101016 0 102 1.6 3.2 0.00 0.00 0.00 92 1009.2
20260508100516 0 102 1.6 3.2 0.00 0.00 0.00 92 1009.3
20260508100017 0 102 0.0 1.6 0.00 0.00 0.00 92 1009.3
20260508095516 0 0.0 0.0 0.00 0.00 0.00 92 1009.3
20260508095016 1 0.0 0.0 0.00 0.00 0.00 92 1009.4
20260508094536 1 0.0 0.0 0.00 0.00 0.00 91 1009.4
20260508094016 1 0.0 1.6 0.00 0.00 0.00 91 1009.5
20260508093537 1 102 0.0 3.2 0.00 0.00 0.00 91 1009.4
20260508093016 1 102 0.0 3.2 0.00 0.00 0.00 91 1009.4
20260508092516 1 102 0.0 3.2 0.00 0.00 0.00 91 1009.4
20260508092016 1 0.0 0.0 0.00 0.00 0.00 91 1009.3
20260508091515 1 0.0 0.0 0.00 0.00 0.00 91 1009.3
20260508091017 1 0.0 0.0 0.00 0.00 0.00 91 1009.3
20260508090517 1 0.0 0.0 0.00 0.00 0.00 91 1009.4
20260508090017 1 0.0 0.0 0.00 0.00 0.00 91 1009.4
20260508085516 1 0.0 0.0 0.00 0.00 0.00 91 1009.5
20260508085059 1 0.0 0.0 0.00 0.00 0.00 91 1009.6
20260508084537 1 0.0 0.0 0.00 0.00 0.00 91 1009.6
20260508084015 1 0.0 0.0 0.00 0.00 0.00 91 1009.6
20260508083516 1 0.0 0.0 0.00 0.00 0.00 91 1009.5
20260508083036 1 0.0 0.0 0.00 0.00 0.00 91 1009.4
20260508082515 1 0.0 0.0 0.00 0.00 0.00 90 1009.5
20260508082017 1 0.0 0.0 0.00 0.00 0.00 90 1009.5
20260508081516 1 0.0 0.0 0.00 0.00 0.00 91 1009.6
20260508081016 1 0.0 0.0 0.00 0.00 0.00 90 1009.6
20260508080517 1 0.0 0.0 0.00 0.00 0.00 90 1009.6
20260508080015 1 0.0 1.6 0.00 0.00 0.00 90 1009.7
20260508075517 1 102 0.0 3.2 0.00 0.00 0.00 90 1009.6
20260508075015 2 102 0.0 4.8 0.00 0.00 0.00 90 1009.6
20260508074517 2 101 1.6 4.8 0.00 0.00 0.00 90 1009.7
20260508074016 2 0.0 0.0 0.00 0.00 0.00 90 1009.7
20260508073515 2 0.0 0.0 0.00 0.00 0.00 90 1009.7
20260508073037 2 0.0 0.0 0.00 0.00 0.00 89 1009.8
20260508072515 2 0.0 0.0 0.00 0.00 0.00 89 1009.8
20260508072016 2 0.0 0.0 0.00 0.00 0.00 89 1009.8
20260508071557 2 0.0 0.0 0.00 0.00 0.00 89 1009.8
20260508071017 2 0.0 0.0 0.00 0.00 0.00 89 1009.7
20260508070556 2 0.0 0.0 0.00 0.00 0.00 89 1009.8
20260508070015 2 0.0 0.0 0.00 0.00 0.00 89 1009.8
20260508065515 2 0.0 0.0 0.00 0.00 0.00 89 1009.9
20260508065015 2 0.0 0.0 0.00 0.00 0.00 89 1010.0
20260508064515 2 0.0 0.0 0.00 0.00 0.00 89 1010.1
20260508064015 2 0.0 0.0 0.00 0.00 0.00 89 1010.1
20260508063515 2 0.0 0.0 0.00 0.00 0.00 88 1010.2
20260508063057 2 0.0 0.0 0.00 0.00 0.00 88 1010.2
20260508062515 3 0.0 0.0 0.00 0.00 0.00 88 1010.3
20260508062035 3 0.0 0.0 0.00 0.00 0.00 88 1010.3
20260508061517 3 0.0 0.0 0.00 0.00 0.00 87 1010.4
20260508061015 3 0.0 0.0 0.00 0.00 0.00 87 1010.4
20260508060536 3 0.0 0.0 0.00 0.00 0.00 87 1010.4
20260508060015 3 0.0 0.0 0.00 0.00 0.00 86 1010.4
20260508055515 3 0.0 0.0 0.00 0.00 0.00 86 1010.4
20260508055016 3 0.0 0.0 0.00 0.00 0.00 86 1010.3
20260508054515 3 0.0 0.0 0.00 0.00 0.00 85 1010.4
20260508054015 3 0.0 0.0 0.00 0.00 0.00 85 1010.3
20260508053515 3 0.0 0.0 0.00 0.00 0.00 85 1010.3
20260508053015 3 0.0 0.0 0.00 0.00 0.00 85 1010.2
20260508052515 3 0.0 0.0 0.00 0.00 0.00 85 1010.2
20260508052015 4 0.0 0.0 0.00 0.00 0.00 85 1010.2
20260508051515 4 0.0 0.0 0.00 0.00 0.00 84 1010.2
20260508051015 4 0.0 0.0 0.00 0.00 0.00 84 1010.2
20260508050515 4 0.0 0.0 0.00 0.00 0.00 84 1010.1
20260508050015 4 0.0 0.0 0.00 0.00 0.00 84 1010.1
20260508045555 4 0.0 0.0 0.00 0.00 0.00 84 1010.2
20260508045015 4 0.0 0.0 0.00 0.00 0.00 83 1010.1
20260508044516 5 0.0 0.0 0.00 0.00 0.00 83 1010.0
20260508044015 5 0.0 0.0 0.00 0.00 0.00 83 1009.9
20260508043515 5 0.0 0.0 0.00 0.00 0.00 82 1009.9
20260508043015 5 0.0 0.0 0.00 0.00 0.00 82 1009.9
20260508042535 5 0.0 0.0 0.00 0.00 0.00 82 1009.9
20260508042015 5 0.0 0.0 0.00 0.00 0.00 82 1009.8
20260508041515 5 0.0 0.0 0.00 0.00 0.00 81 1009.8
20260508041015 5 0.0 0.0 0.00 0.00 0.00 81 1009.8
20260508040517 5 0.0 0.0 0.00 0.00 0.00 81 1009.8
20260508040016 5 0.0 0.0 0.00 0.00 0.00 81 1009.7
20260508035516 5 0.0 0.0 0.00 0.00 0.00 80 1009.7
20260508035037 6 0.0 0.0 0.00 0.00 0.00 80 1009.7
20260508034515 6 0.0 0.0 0.00 0.00 0.00 80 1009.7
20260508034035 6 0.0 0.0 0.00 0.00 0.00 79 1009.6
20260508033515 6 0.0 0.0 0.00 0.00 0.00 79 1009.7
20260508033017 6 0.0 0.0 0.00 0.00 0.00 78 1009.7
20260508032516 6 0.0 0.0 0.00 0.00 0.00 77 1009.6
20260508032015 6 0.0 0.0 0.00 0.00 0.00 76 1009.8
20260508031515 6 0.0 0.0 0.00 0.00 0.00 76 1009.8
20260508031015 6 0.0 0.0 0.00 0.00 0.00 75 1009.9
20260508030517 6 0.0 0.0 0.00 0.00 0.00 74 1009.9
20260508030016 6 0.0 0.0 0.00 0.00 0.00 74 1009.8
20260508025515 6 0.0 0.0 0.00 0.00 0.00 73 1009.7
20260508025015 6 0.0 0.0 0.00 0.00 0.00 73 1009.7
20260508024536 7 0.0 0.0 0.00 0.00 0.00 72 1009.7
20260508024015 7 0.0 0.0 0.00 0.00 0.00 71 1009.7
20260508023515 7 0.0 1.6 0.00 0.00 0.00 70 1009.6
20260508023016 7 140 0.0 1.6 0.00 0.00 0.00 70 1009.6
20260508022515 7 140 0.0 1.6 0.00 0.00 0.00 70 1009.5
20260508022015 7 0.0 1.6 0.00 0.00 0.00 69 1009.6
20260508021515 7 139 0.0 3.2 0.00 0.00 0.00 69 1009.6
20260508021015 8 138 1.6 4.8 0.00 0.00 0.00 69 1009.5
20260508020535 8 139 3.2 4.8 0.00 0.00 0.00 69 1009.5
20260508020016 8 186 1.6 3.2 0.00 0.00 0.00 68 1009.4
20260508015516 8 221 0.0 3.2 0.00 0.00 0.00 67 1009.4
20260508015015 8 256 0.0 3.2 0.00 0.00 0.00 64 1009.4
20260508014515 8 258 0.0 3.2 0.00 0.00 0.00 64 1009.3
20260508014015 9 0.0 0.0 0.00 0.00 0.00 62 1009.3
20260508013515 9 0.0 0.0 0.00 0.00 0.00 61 1009.1
20260508013016 9 0.0 4.8 0.00 0.00 0.00 60 1009.1
20260508012515 10 245 0.0 6.4 0.00 0.00 0.00 60 1009.0
20260508012015 10 222 1.6 6.4 0.00 0.00 0.00 59 1009.0
20260508011516 10 218 1.6 8.0 0.00 0.00 0.00 58 1008.9
20260508011015 10 234 3.2 8.0 0.00 0.00 0.00 58 1008.9
20260508010515 10 235 3.2 4.8 0.00 0.00 0.00 58 1008.9
20260508010015 10 230 1.6 6.4 0.00 0.00 0.00 57 1008.9
20260508005515 10 233 3.2 11.3 0.00 0.00 0.00 57 1008.9
20260508005036 10 244 4.8 11.3 0.00 0.00 0.00 57 1008.8
20260508004515 10 242 4.8 14.5 0.00 0.00 0.00 56 1008.8
20260508004015 10 241 8.0 14.5 0.00 0.00 0.00 55 1008.8
20260508003515 10 247 8.0 14.5 0.00 0.00 0.00 55 1008.8
20260508003015 10 253 6.4 12.9 0.00 0.00 0.00 54 1008.7
20260508002517 11 246 8.0 12.9 0.00 0.00 0.00 54 1008.7
20260508002015 11 251 8.0 19.3 0.00 0.00 0.00 53 1008.7
20260508001515 11 255 12.9 22.5 0.00 0.00 0.00 52 1008.7
20260508001015 11 250 12.9 22.5 0.00 0.00 0.00 52 1008.7
20260508000515 11 252 12.9 19.3 0.00 0.00 0.00 51 1008.7
20260508000015 11 237 12.9 19.3 0.00 0.00 0.00 51 1008.5
20260507235515 11 228 9.7 24.1 0.00 0.00 0.00 51 1008.4
20260507235015 11 232 12.9 24.1 0.00 0.00 0.00 51 1008.7
20260507234515 11 228 8.0 19.3 0.00 0.00 0.00 50 1008.7
20260507234016 11 234 12.9 19.3 0.00 0.00 0.00 49 1008.6
20260507233516 11 248 11.3 19.3 0.00 0.00 0.00 49 1008.7
20260507233015 11 247 9.7 17.7 0.00 0.00 0.00 50 1008.6
20260507232516 11 254 8.0 16.1 0.00 0.00 0.00 49 1008.7
20260507232015 11 238 6.4 16.1 0.00 0.00 0.00 49 1008.7
20260507231515 11 256 6.4 14.5 0.00 0.00 0.00 49 1008.7
20260507231015 11 254 8.0 14.5 0.00 0.00 0.00 49 1008.8
20260507230515 11 258 8.0 17.7 0.00 0.00 0.00 48 1008.8
20260507230035 11 237 11.3 19.3 0.00 0.00 0.00 48 1008.9
20260507225515 11 250 12.9 19.3 0.00 0.00 0.00 47 1009.0
20260507225015 11 251 8.0 29.0 0.00 0.00 0.00 46 1009.1
20260507224515 11 247 17.7 30.6 0.00 0.00 0.00 45 1009.2
20260507224015 11 255 19.3 33.8 0.00 0.00 0.00 44 1009.3
20260507223515 12 271 20.9 33.8 0.00 0.00 0.00 43 1009.2
20260507223017 12 262 19.3 32.2 0.00 0.00 0.00 42 1009.1
20260507222517 12 253 19.3 29.0 0.00 0.00 0.00 43 1009.1
20260507222017 12 264 14.5 24.1 0.00 0.00 0.00 41 1009.1
20260507221517 12 253 9.7 20.9 0.00 0.00 0.00 43 1009.2
20260507221017 12 260 11.3 20.9 0.00 0.00 0.00 42 1009.1
20260507220518 12 273 11.3 20.9 0.00 0.00 0.00 41 1009.1
20260507220037 12 252 12.9 20.9 0.00 0.00 0.00 41 1009.2